Location: Mohawk View
(42.7837°N, 73.7885°W)
Time: 07:47:09
(UTC+00:00)

CARTOSAT-1 - Pass Details

Date: 17 June 2021
Orbit: 616 x 618 km, 97.8° (Epoch: 27 July)

Event Time Altitude Azimuth Distance (km) Brightness Sun altitude
Exits shadow 02:02:14 19° 149° (SSE) 1,485 4.9 -12.7°
Maximum altitude 02:05:14 60° 74° (ENE) 708 3.7 -13.0°
Drops below altitude 10° 02:09:30 10° 355° (N) 1,993 7.1 -13.5°
Sets 02:11:43 0° 352° (N) 2,903 8.1 -13.8°
